STARLINK-11080, 60727

Orbit data source: Space-Track

STARLINK-11080, 60727 is a payload satellite owned by SpaceX/Seattle (US) in LEO that was launched on Wed, 28 Aug 2024 UTC via an FALCON 9 launch vehicle from the Air Force Eastern Test Range (AFETR). Payloads include a variety of satellites, spacecraft, and rockets equipped with specific instruments for various scientific and technological missions. These include communications satellites like Starlink; space stations such as the ISS; scientific satellites like the Hubble; Earth observation satellites from companies like Planet Labs, Umbra, and HawkEye 360; GPS; miniature CubeSats for education and research; and military/defense satellites.

Loading next visibility...
STARLINK-11080 details
Identifier
60727, 2024-152H
Orbit
LEO
Last TLE update22 hours ago
Origin
Flag of USSpaceX/Seattle (US)
ManufacturerSpaceX/Seattle
MissionOperational spacecraft
Bus & MotorSTARLINK V2M, Unknown motor
Mass730 kg wet, ~700 kg dry
Launch date (UTC)
2024-08-28 (4 months ago)
Launch vehicle
FALCON 9
Launch site
Air Force Eastern Test Range (AFETR)
Object type
Payload
Rocket body
Debris
Shape & HBRUnknown
Radar Cross SectionLarge (>1 m²)

Expand to show TLE details & history

TLE from 22 hours ago
0 STARLINK-11080
1 60727U 24152H   24355.70744390  .00002364  00000-0  24361-4 0  9994
2 60727  53.1592 144.8528 0000106 226.3353 133.7656 15.69703631 19239
Epoch: 2024-12-20T16:58Z
Definitive object data (Epoch: 2024-12-20T16:58:43.152Z)
Latitude-0.00006°
Longitude160.40387°
Altitude360.709 km
Speed7.694 km/s
True Right ascension09h 39m 24s
True Declination0° 00' 00"
Sunlit
Object was in full shadow at TLE epoch
Visualization TLE readout
Latitude21.77757°
Longitude173.30049°
Altitude360.431 km
Speed7.696 km/s
Apparent Right ascension07h 06m 42s
Apparent Declination-19° 34' 02"
Sunlit
Object is in full shadow
Visualization observer readout
Local Sidereal Time13:31:25
Azimuth258.429° W
Elevation-17.019°
Doppler factor1
Orbital elements
Apogee altitude360.077 km
Perigee altitude359.934 km
Semi-major axis6,738.143 km
Eccentricity0.0000106
Inclination53.1592°
RAAN144.8528°
Arg. of periapsis226.3353°
True anomaly133.76648°
Mean anomaly133.7656°
Eccentric anomaly133.76604°
Mean motion3.92403 °/min
BSTAR0.000024361
Orbital period91.74 mins
Loading maneuver chart data...
Loading historical data...
Loading historical data...
Loading historical data...
Loading historical data...
Loading historical data...
Loading historical data...
Loading historical data...

STARLINK-11080 Visibility forecast

Observer location: undefined°, undefined

Span
Click to sort rows by Start time (UTC) header in descending order
Start Az.
Max El. time (UTC)
Max El. Az.
Max El.
End time (UTC)
End Az.
4 mins2024-12-21 19:27:16.993Z318.131° NNW2024-12-21 19:29:16.993Z52.528° ENE42.625°2024-12-21 19:31:16.993Z120.021° SE
|